This demonstration page uses our WeatherBlox Daily Observations layout. Learn more.

Left ArrowRight Arrow

39.29038, -76.61219

Hourly Observations for November 20, 2020

Temp ( °F °C ) Dew Point ( °F °C ) Humidity (%) Winds ( mph kmh ) Pressure ( in mb ) Visibility ( mi km ) Precip ( " mm )
12:54 am 00:54 Mostly Cloudy 47 8.3 28 -2.2 48 48 SSW 3 6 30.41 1030 10 16 0.00 0.00
1:54 am 01:54 Mostly Cloudy 43 6.1 28 -2.2 56 56 Calm 30.42 1030 10 16 0.00 0.00
2:54 am 02:54 Mostly Clear 41 5 29 -1.7 62 62 Calm 30.41 1030 10 16 0.00 0.00
3:54 am 03:54 Mostly Clear 40 4.4 28 -2.2 63 63 Calm 30.40 1029 10 16 0.00 0.00
4:54 am 04:54 Mostly Clear 42 5.6 28 -2.2 58 58 Calm 30.40 1029 10 16 0.00 0.00
5:54 am 05:54 Mostly Clear 42 5.6 28 -2.2 58 58 Calm 30.40 1030 10 16 0.00 0.00
6:54 am 06:54 Mostly Clear 36 2.2 29 -1.7 76 76 Calm 30.42 1030 10 16 0.00 0.00
7:54 am 07:54 Mostly Sunny 39 3.9 32 0 76 76 Calm 30.43 1031 10 16 0.00 0.00
8:54 am 08:54 Mostly Sunny 48 8.9 31 -0.6 52 52 SSW 7 11 30.43 1030 10 16 0.00 0.00
9:54 am 09:54 Mostly Sunny 53 11.7 32 0 45 45 S 7 11 30.41 1030 10 16 0.00 0.00
10:54 am 10:54 Mostly Sunny 57 13.9 32 0 39 39 SW 8 13 30.39 1029 10 16 0.00 0.00
11:54 am 11:54 Mostly Sunny 60 15.6 34 1.1 38 38 WSW 7 11 30.35 1028 10 16 0.00 0.00
12:54 pm 12:54 Mostly Sunny 63 17.2 33 0.6 33 33 SSW 7 11 30.33 1027 10 16 0.00 0.00
1:54 pm 13:54 Sunny 65 18.3 34 1.1 32 32 VRB 5 7 30.30 1026 10 16 0.00 0.00
2:54 pm 14:54 Sunny 66 18.9 34 1.1 30 30 SW 6 9 30.29 1026 10 16 0.00 0.00
3:54 pm 15:54 Sunny 66 18.9 35 1.7 32 32 SW 3 6 30.29 1026 10 16 0.00 0.00
4:54 pm 16:54 Clear 61 16.1 35 1.7 38 38 Calm 30.31 1026 10 16 0.00 0.00
5:54 pm 17:54 Clear 55 12.8 35 1.7 47 47 SSW 3 6 30.31 1026 10 16 0.00 0.00
6:54 pm 18:54 Clear 51 10.6 35 1.7 54 54 Calm 30.31 1027 10 16 0.00 0.00
7:54 pm 19:54 Clear 49 9.4 36 2.2 61 61 Calm 30.31 1026 10 16 0.00 0.00
8:54 pm 20:54 Clear 45 7.2 36 2.2 71 71 Calm 30.31 1027 10 16 0.00 0.00
9:54 pm 21:54 Clear 45 7.2 36 2.2 71 71 Calm 30.31 1027 10 16 0.00 0.00
10:54 pm 22:54 Clear 47 8.3 36 2.2 66 66 W 6 9 30.31 1027 10 16 0.00 0.00
11:54 pm 23:54 Clear 46 7.8 36 2.2 68 68 W 3 6 30.31 1026 10 16 0.00 0.00

Powered by AerisWeather